When you browse on this site, cookies collect data to enhance your experience and personalize the content and advertising you see.
Visit our Privacy Policy to learn more. By continuing to use the site, you agree to this use of cookies and data.
  • In Belgien
  • Länderverzeichnis
  • Für 7 Tage
  • Wassertemperatur
  • Satellitenkarten
  • Wetterkarte
  • Widgets
  • user-avatar
    Anmelden

    Stündliche Wetter Privolzhskiy

    Heute, 21 Januar, Montag

    Zeit Temperatur Niederschläge Wind Luftdruck Luftfeuchtigkeit
    00:00 -9°C° 0 mm 4 m/S 742 mmHg 88%
    01:00 -10°C° 0 mm 4 m/S 743 mmHg 89%
    02:00 -11°C° 0 mm 4 m/S 743 mmHg 91%
    03:00 -13°C° 0 mm 3 m/S 743 mmHg 94%
    04:00 -13°C° 0 mm 3 m/S 743 mmHg 94%
    05:00 -14°C° 0 mm 3 m/S 743 mmHg 95%
    06:00 -14°C° 0 mm 2 m/S 743 mmHg 95%
    07:00 -14°C° 0 mm 2 m/S 743 mmHg 96%
    08:00 -15°C° 0 mm 2 m/S 743 mmHg 96%
    09:00 -15°C° 0 mm 2 m/S 744 mmHg 96%
    10:00 -14°C° 0 mm 2 m/S 744 mmHg 95%
    11:00 -14°C° 0 mm 3 m/S 744 mmHg 93%
    12:00 -14°C° 0 mm 3 m/S 744 mmHg 91%
    13:00 -13°C° 0 mm 3 m/S 744 mmHg 89%
    14:00 -13°C° 0 mm 3 m/S 744 mmHg 88%
    15:00 -13°C° 0 mm 3 m/S 744 mmHg 86%
    16:00 -14°C° 0 mm 3 m/S 745 mmHg 88%
    17:00 -14°C° 0 mm 2 m/S 745 mmHg 90%
    18:00 -16°C° 0 mm 2 m/S 745 mmHg 92%
    19:00 -17°C° 0 mm 2 m/S 745 mmHg 94%
    20:00 -18°C° 0 mm 2 m/S 746 mmHg 95%
    21:00 -19°C° 0 mm 2 m/S 746 mmHg 96%
    22:00 -19°C° 0 mm 2 m/S 746 mmHg 96%
    23:00 -20°C° 0 mm 2 m/S 746 mmHg 97%

    Morgen, 22 Januar, Dienstag

    Zeit Temperatur Niederschläge Wind Luftdruck Luftfeuchtigkeit
    00:00 -20°C° 0 mm 2 m/S 747 mmHg 97%
    01:00 -20°C° 0.1 mm 2 m/S 747 mmHg 97%
    02:00 -20°C° 0.1 mm 2 m/S 747 mmHg 96%
    03:00 -20°C° 0.1 mm 2 m/S 747 mmHg 96%
    04:00 -21°C° 0 mm 2 m/S 748 mmHg 96%
    05:00 -21°C° 0 mm 2 m/S 748 mmHg 97%
    06:00 -23°C° 0 mm 2 m/S 748 mmHg 97%
    07:00 -23°C° 0 mm 2 m/S 749 mmHg 97%
    08:00 -23°C° 0 mm 2 m/S 749 mmHg 97%
    09:00 -23°C° 0 mm 2 m/S 749 mmHg 97%
    10:00 -23°C° 0 mm 3 m/S 750 mmHg 96%
    11:00 -22°C° 0 mm 3 m/S 750 mmHg 95%
    12:00 -21°C° 0 mm 3 m/S 750 mmHg 94%
    13:00 -19°C° 0 mm 3 m/S 751 mmHg 94%
    14:00 -19°C° 0 mm 3 m/S 751 mmHg 94%
    15:00 -17°C° 0 mm 2 m/S 751 mmHg 94%
    16:00 -18°C° 0 mm 2 m/S 751 mmHg 96%
    17:00 -19°C° 0 mm 2 m/S 751 mmHg 97%
    18:00 -20°C° 0 mm 2 m/S 752 mmHg 98%
    19:00 -20°C° 0 mm 2 m/S 752 mmHg 98%
    20:00 -20°C° 0 mm 2 m/S 752 mmHg 98%
    21:00 -20°C° 0 mm 2 m/S 752 mmHg 98%
    22:00 -20°C° 0 mm 2 m/S 752 mmHg 98%
    23:00 -21°C° 0 mm 2 m/S 752 mmHg 97%

    übermorgen, 23 Januar, Mittwoch

    Zeit Temperatur Niederschläge Wind Luftdruck Luftfeuchtigkeit
    00:00 -21°C° 0 mm 2 m/S 752 mmHg 97%
    01:00 -21°C° 0 mm 2 m/S 752 mmHg 98%
    02:00 -23°C° 0 mm 2 m/S 753 mmHg 98%
    03:00 -23°C° 0 mm 2 m/S 753 mmHg 98%
    04:00 -24°C° 0 mm 2 m/S 753 mmHg 97%
    05:00 -24°C° 0 mm 2 m/S 753 mmHg 97%
    06:00 -25°C° 0 mm 2 m/S 753 mmHg 97%
    07:00 -25°C° 0 mm 2 m/S 753 mmHg 97%
    08:00 -25°C° 0 mm 2 m/S 753 mmHg 96%
    09:00 -25°C° 0 mm 2 m/S 754 mmHg 96%
    10:00 -24°C° 0 mm 2 m/S 754 mmHg 95%
    11:00 -21°C° 0 mm 2 m/S 754 mmHg 93%
    12:00 -20°C° 0 mm 2 m/S 754 mmHg 91%
    13:00 -19°C° 0 mm 2 m/S 754 mmHg 91%
    14:00 -18°C° 0 mm 2 m/S 754 mmHg 92%
    15:00 -18°C° 0 mm 2 m/S 754 mmHg 92%
    16:00 -18°C° 0 mm 2 m/S 753 mmHg 94%
    17:00 -19°C° 0 mm 2 m/S 753 mmHg 96%
    18:00 -20°C° 0 mm 2 m/S 753 mmHg 97%
    19:00 -20°C° 0 mm 2 m/S 753 mmHg 97%
    20:00 -20°C° 0 mm 2 m/S 753 mmHg 97%
    21:00 -21°C° 0 mm 3 m/S 753 mmHg 97%
    22:00 -21°C° 0 mm 3 m/S 753 mmHg 97%
    23:00 -19°C° 0 mm 3 m/S 753 mmHg 97%

    24 Januar, Donnerstag

    Zeit Temperatur Niederschläge Wind Luftdruck Luftfeuchtigkeit
    00:00 -18°C° 0 mm 3 m/S 753 mmHg 96%
    01:00 -18°C° 0 mm 3 m/S 753 mmHg 96%
    02:00 -17°C° 0 mm 3 m/S 753 mmHg 95%
    03:00 -17°C° 0 mm 3 m/S 753 mmHg 95%
    04:00 -18°C° 0 mm 3 m/S 752 mmHg 95%
    05:00 -19°C° 0 mm 3 m/S 752 mmHg 96%
    06:00 -21°C° 0 mm 3 m/S 751 mmHg 96%
    07:00 -22°C° 0 mm 3 m/S 751 mmHg 96%
    08:00 -20°C° 0 mm 2 m/S 751 mmHg 95%
    09:00 -21°C° 0 mm 2 m/S 751 mmHg 95%
    10:00 -20°C° 0 mm 2 m/S 751 mmHg 93%
    11:00 -18°C° 0 mm 2 m/S 750 mmHg 92%
    12:00 -18°C° 0 mm 3 m/S 750 mmHg 90%
    13:00 -16°C° 0 mm 2 m/S 750 mmHg 91%
    14:00 -15°C° 0 mm 2 m/S 750 mmHg 92%
    15:00 -14°C° 0 mm 2 m/S 750 mmHg 93%
    16:00 -15°C° 0 mm 2 m/S 751 mmHg 94%
    17:00 -15°C° 0 mm 2 m/S 751 mmHg 95%
    18:00 -14°C° 0 mm 1 m/S 751 mmHg 97%
    19:00 -15°C° 0 mm 1 m/S 752 mmHg 96%
    20:00 -17°C° 0 mm 2 m/S 752 mmHg 96%
    21:00 -18°C° 0 mm 2 m/S 753 mmHg 95%
    22:00 -19°C° 0 mm 2 m/S 753 mmHg 95%
    23:00 -18°C° 0 mm 1 m/S 753 mmHg 95%

    25 Januar, Freitag

    Zeit Temperatur Niederschläge Wind Luftdruck Luftfeuchtigkeit
    00:00 -19°C° 0 mm 1 m/S 754 mmHg 94%
    01:00 -20°C° 0 mm 1 m/S 754 mmHg 95%
    02:00 -20°C° 0 mm 1 m/S 754 mmHg 95%
    03:00 -21°C° 0 mm 1 m/S 755 mmHg 96%
    04:00 -21°C° 0 mm 1 m/S 755 mmHg 96%
    05:00 -21°C° 0 mm 1 m/S 755 mmHg 97%
    06:00 -21°C° 0 mm 1 m/S 755 mmHg 97%
    07:00 -22°C° 0 mm 1 m/S 755 mmHg 97%
    08:00 -22°C° 0 mm 1 m/S 756 mmHg 97%
    09:00 -22°C° 0 mm 1 m/S 756 mmHg 97%
    10:00 -20°C° 0 mm 1 m/S 756 mmHg 95%
    11:00 -18°C° 0 mm 1 m/S 756 mmHg 93%
    12:00 -17°C° 0 mm 1 m/S 756 mmHg 91%
    13:00 -16°C° 0 mm 1 m/S 756 mmHg 92%
    14:00 -16°C° 0 mm 1 m/S 756 mmHg 92%
    15:00 -17°C° 0 mm 2 m/S 755 mmHg 93%
    16:00 -18°C° 0 mm 2 m/S 755 mmHg 93%
    17:00 -19°C° 0 mm 2 m/S 755 mmHg 94%
    18:00 -20°C° 0 mm 2 m/S 755 mmHg 95%
    19:00 -20°C° 0 mm 2 m/S 755 mmHg 95%
    20:00 -21°C° 0 mm 2 m/S 755 mmHg 95%
    21:00 -21°C° 0 mm 2 m/S 755 mmHg 95%
    22:00 -21°C° 0 mm 2 m/S 754 mmHg 96%
    23:00 -21°C° 0 mm 2 m/S 754 mmHg 96%

    26 Januar, Samstag

    Zeit Temperatur Niederschläge Wind Luftdruck Luftfeuchtigkeit
    00:00 -21°C° 0 mm 2 m/S 754 mmHg 96%
    01:00 -23°C° 0 mm 2 m/S 754 mmHg 96%
    02:00 -24°C° 0 mm 2 m/S 754 mmHg 96%
    03:00 -24°C° 0 mm 2 m/S 754 mmHg 96%
    04:00 -24°C° 0 mm 2 m/S 753 mmHg 96%
    05:00 -24°C° 0 mm 2 m/S 753 mmHg 95%
    06:00 -25°C° 0 mm 2 m/S 753 mmHg 94%
    07:00 -25°C° 0 mm 2 m/S 753 mmHg 94%
    08:00 -25°C° 0 mm 2 m/S 753 mmHg 93%
    09:00 -25°C° 0 mm 2 m/S 753 mmHg 92%
    10:00 -23°C° 0 mm 2 m/S 753 mmHg 90%
    11:00 -21°C° 0 mm 2 m/S 753 mmHg 89%
    12:00 -20°C° 0 mm 2 m/S 753 mmHg 87%
    13:00 -19°C° 0 mm 2 m/S 753 mmHg 88%
    14:00 -19°C° 0 mm 2 m/S 753 mmHg 88%
    15:00 -19°C° 0 mm 2 m/S 752 mmHg 89%
    16:00 -20°C° 0 mm 2 m/S 752 mmHg 90%
    17:00 -21°C° 0 mm 2 m/S 752 mmHg 91%
    18:00 -24°C° 0 mm 2 m/S 752 mmHg 92%
    19:00 -24°C° 0 mm 2 m/S 752 mmHg 92%
    20:00 -25°C° 0 mm 2 m/S 752 mmHg 91%
    21:00 -25°C° 0 mm 2 m/S 752 mmHg 90%
    22:00 -26°C° 0 mm 2 m/S 752 mmHg 90%
    23:00 -26°C° 0 mm 2 m/S 752 mmHg 90%
    Mehr zeigen